FW4323 Weather Reports


time (UTC)temp
F
wind
direction
speed
knots
gust
knots
rain 1hr
in
rain 24hr
in
rain mn
in
humidity
%
barometer
mb
20260507074525 53 178 1.7 7.8 0.01 0.05 0.01 83 1008.1
20260507073021 54 196 2.6 9.6 0.00 0.04 0.00 82 1008.1
20260507071523 55 213 1.7 8.7 0.00 0.04 0.00 82 1007.3
20260507070015 55 185 2.6 9.6 0.00 0.04 0.00 82 1007.5
20260507064639 55 263 2.6 7.8 0.00 0.04 0.00 83 1007.4
20260507063010 56 200 2.6 11.3 0.00 0.04 0.00 83 1007.6
20260507061508 56 175 3.5 10.4 0.00 0.04 0.00 83 1007.4
20260507060005 57 163 1.7 8.7 0.00 0.04 0.00 82 1007.6
20260507054504 57 167 3.5 10.4 0.00 0.04 0.00 83 1007.7
20260507053001 58 205 2.6 7.0 0.00 0.04 0.00 84 1007.9
20260507051608 58 182 1.7 6.1 0.00 0.04 0.00 84 1007.6
20260507050057 58 200 0.9 7.8 0.00 0.04 0.00 84 1007.5
20260507044558 59 191 2.6 12.2 0.00 0.04 0.00 86 1007.6
20260507043055 59 212 3.5 7.8 0.00 0.04 0.00 91 1007.3
20260507041552 59 180 0.0 6.1 0.00 0.04 0.00 93 1007.3
20260507040047 59 157 1.7 7.8 0.00 0.04 0.00 93 1007.6
20260507034546 59 153 3.5 8.7 0.00 0.04 0.04 93 1007.6
20260507033046 59 155 3.5 7.0 0.00 0.04 0.04 93 1007.2
20260507031545 59 117 3.5 9.6 0.00 0.04 0.04 92 1007.2
20260507030045 59 157 4.3 8.7 0.00 0.04 0.04 93 1007.0
20260507024544 59 150 3.5 7.0 0.00 0.04 0.04 93 1006.9
20260507023044 59 155 2.6 6.1 0.00 0.04 0.04 93 1007.2
20260507021544 59 159 3.5 7.0 0.00 0.04 0.04 93 1007.1
20260507020053 58 191 2.6 7.0 0.00 0.04 0.04 93 1007.1
20260507014546 58 127 2.6 7.0 0.00 0.04 0.04 93 1007.1
20260507013042 58 99 4.3 11.3 0.00 0.04 0.04 93 1007.3
20260507011541 58 150 3.5 9.6 0.00 0.04 0.04 93 1007.4
20260507010055 58 128 4.3 8.7 0.00 0.04 0.04 93 1007.6
20260507004537 58 111 4.3 9.6 0.00 0.04 0.04 93 1007.7
20260507003036 58 90 4.3 7.8 0.01 0.04 0.04 93 1007.5
20260507001535 58 124 4.3 13.0 0.02 0.04 0.04 92 1007.5
20260507000034 58 82 4.3 9.6 0.02 0.04 0.04 92 1007.3
20260506234532 58 151 4.3 10.4 0.02 0.04 0.04 91 1007.4
20260506233028 59 108 4.3 10.4 0.01 0.03 0.03 90 1007.2
20260506231526 59 98 5.2 10.4 0.00 0.02 0.02 89 1007.2
20260506230028 60 156 3.5 9.6 0.00 0.02 0.02 89 1007.2
20260506224525 60 150 4.3 9.6 0.00 0.02 0.02 89 1007.2
20260506223023 60 76 5.2 13.9 0.00 0.02 0.02 90 1007.3
20260506221520 60 108 4.3 9.6 0.00 0.02 0.02 90 1007.6
20260506220028 60 157 3.5 12.2 0.00 0.02 0.02 89 1007.6
20260506214617 61 100 5.2 10.4 0.00 0.02 0.02 88 1007.8
20260506213016 61 104 7.0 18.2 0.01 0.02 0.02 86 1008.1
20260506211513 61 159 7.0 18.2 0.01 0.02 0.02 86 1007.9
20260506210012 61 92 8.7 20.9 0.01 0.02 0.02 86 1008.0
20260506204511 61 135 6.1 12.2 0.01 0.02 0.02 86 1008.1
20260506203009 62 137 6.1 13.9 0.00 0.01 0.01 85 1008.1
20260506201524 62 89 6.1 13.9 0.01 0.01 0.01 85 1008.0
20260506200006 63 96 5.2 13.9 0.01 0.01 0.01 84 1007.9
20260506194507 63 109 7.0 15.6 0.01 0.01 0.01 83 1008.0
20260506193004 64 105 4.3 13.9 0.01 0.01 0.01 81 1008.2
20260506191503 66 104 3.5 10.4 0.00 0.00 0.00 78 1008.1
20260506190002 68 113 7.0 17.4 0.00 0.00 0.00 72 1008.0
20260506184501 69 154 6.1 13.9 0.00 0.00 0.00 70 1008.3
20260506183114 69 103 8.7 16.5 0.00 0.00 0.00 68 1008.4
20260506181600 70 69 7.0 20.0 0.00 0.00 0.00 66 1008.4
20260506180057 71 134 7.8 23.5 0.00 0.00 0.00 64 1008.3
20260506174555 72 111 6.1 17.4 0.00 0.00 0.00 64 1008.6
20260506173052 72 97 7.8 18.2 0.00 0.00 0.00 65 1008.8
20260506171601 71 61 8.7 20.0 0.00 0.00 0.00 66 1008.8
20260506170053 71 81 7.8 16.5 0.00 0.00 0.00 67 1008.8
20260506164549 71 107 7.8 18.2 0.00 0.00 0.00 67 1009.0
20260506163048 71 108 7.0 16.5 0.00 0.00 0.00 68 1009.2
20260506161545 71 107 4.3 16.5 0.00 0.00 0.00 67 1009.4
20260506160054 71 71 7.0 13.9 0.00 0.00 0.00 66 1009.9
20260506154540 71 119 7.0 13.9 0.00 0.00 0.00 65 1010.1
20260506153040 71 119 7.8 19.1 0.00 0.00 0.00 65 1010.2
20260506151541 71 127 5.2 15.6 0.00 0.00 0.00 65 1010.3
20260506150035 71 147 6.1 16.5 0.00 0.00 0.00 67 1010.6
20260506144541 70 107 7.8 18.2 0.00 0.00 0.00 68 1010.5
20260506143035 70 144 10.4 19.1 0.00 0.00 0.00 68 1010.5
20260506141529 69 115 8.7 16.5 0.00 0.00 0.00 69 1010.4
20260506140031 68 74 7.8 20.0 0.00 0.00 0.00 72 1010.5
20260506134522 66 136 6.1 17.4 0.00 0.00 0.00 75 1010.4
20260506133027 66 59 5.2 9.6 0.00 0.00 0.00 76 1011.1
20260506131520 65 129 5.2 11.3 0.00 0.00 0.00 77 1011.2
20260506130117 64 80 7.0 12.2 0.00 0.00 0.00 77 1011.0
20260506124520 63 155 4.3 13.9 0.00 0.00 0.00 79 1011.0
20260506123015 63 80 7.0 11.3 0.00 0.00 0.00 80 1011.1
20260506121513 62 112 4.3 12.2 0.00 0.00 0.00 81 1010.9
20260506120013 61 77 5.2 9.6 0.00 0.00 0.00 82 1011.2
20260506114529 61 101 6.1 12.2 0.00 0.00 0.00 82 1011.2
20260506113011 61 128 3.5 10.4 0.00 0.00 0.00 82 1011.8
20260506111509 61 78 4.3 9.6 0.00 0.00 0.00 82 1011.4
20260506110009 60 113 5.2 8.7 0.00 0.00 0.00 82 1011.4
20260506104507 60 119 6.1 9.6 0.00 0.00 0.00 83 1011.4
20260506103006 60 82 5.2 11.3 0.00 0.00 0.00 82 1011.5
20260506101505 60 145 4.3 8.7 0.00 0.00 0.00 82 1011.4
20260506100009 60 123 4.3 7.8 0.00 0.00 0.00 83 1011.4
20260506094502 60 132 4.3 8.7 0.00 0.00 0.00 82 1011.1
20260506093100 60 121 5.2 9.6 0.00 0.00 0.00 82 1011.3
20260506091559 60 150 4.3 10.4 0.00 0.00 0.00 82 1011.2
20260506090056 60 153 3.5 8.7 0.00 0.00 0.00 81 1011.1
20260506084558 61 114 3.5 9.6 0.00 0.00 0.00 81 1011.2
20260506083052 61 125 4.3 7.8 0.00 0.00 0.00 80 1011.3
20260506081551 61 146 4.3 9.6 0.00 0.00 0.00 80 1011.2